Total_Precipitation_Accumulation
0.11 0.12 0.15 0.19 0.19 0.12 0.06 0.03 0.03 0.04 0.04 0.04 0.05 0.06 0.06 0.08 0.09 0.15 0.12 0.08 0.10 0.13 0.25 0.46 0.63 0.76 0.76 0.73 0.64 0.54 0.46 0.47 0.50 0.60 0.71 0.73 0.66 0.60 0.55 0.54 0.52 0.60 0.66 0.64 0.62 0.55 0.45 0.36 0.29
0.13 0.18 0.26 0.30 0.19 0.09 0.03 0.02 0.02 0.04 0.04 0.05 0.06 0.08 0.10 0.10 0.10 0.14 0.16 0.16 0.12 0.18 0.31 0.47 0.70 0.86 0.86 0.76 0.71 0.62 0.54 0.52 0.55 0.57 0.65 0.70 0.72 0.73 0.64 0.62 0.62 0.61 0.58 0.53 0.48 0.41 0.36 0.32 0.22
0.22 0.30 0.44 0.35 0.17 0.07 0.03 0.01 0.02 0.03 0.06 0.07 0.09 0.10 0.17 0.19 0.17 0.18 0.19 0.22 0.21 0.28 0.41 0.60 0.82 0.97 1.00 0.89 0.83 0.75 0.64 0.60 0.61 0.62 0.64 0.68 0.75 0.77 0.77 0.75 0.71 0.63 0.50 0.45 0.43 0.34 0.30 0.29 0.23
0.37 0.53 0.56 0.35 0.13 0.06 0.04 0.03 0.03 0.07 0.10 0.12 0.15 0.21 0.25 0.24 0.25 0.23 0.23 0.35 0.40 0.44 0.61 0.75 0.90 1.03 1.06 1.01 0.93 0.91 0.82 0.71 0.75 0.74 0.69 0.72 0.74 0.80 0.84 0.78 0.68 0.61 0.52 0.44 0.37 0.34 0.31 0.28 0.23
0.57 0.69 0.57 0.32 0.12 0.05 0.05 0.04 0.04 0.08 0.12 0.15 0.20 0.29 0.37 0.35 0.36 0.40 0.40 0.55 0.65 0.66 0.81 0.91 1.03 1.13 1.11 1.10 1.07 1.05 1.03 0.96 0.91 0.87 0.81 0.80 0.79 0.79 0.81 0.77 0.61 0.55 0.53 0.48 0.42 0.39 0.36 0.33 0.24
0.84 0.81 0.57 0.34 0.14 0.07 0.05 0.04 0.06 0.10 0.13 0.18 0.26 0.40 0.48 0.55 0.62 0.69 0.73 0.79 0.90 0.92 1.05 1.14 1.28 1.35 1.26 1.19 1.14 1.14 1.22 1.22 1.15 1.09 1.00 0.90 0.88 0.85 0.78 0.72 0.60 0.55 0.54 0.51 0.47 0.43 0.38 0.36 0.28
0.89 0.81 0.52 0.29 0.16 0.09 0.08 0.05 0.06 0.11 0.15 0.18 0.25 0.49 0.59 0.77 0.94 1.06 1.15 1.20 1.22 1.33 1.42 1.52 1.52 1.45 1.41 1.33 1.26 1.22 1.24 1.29 1.32 1.24 1.17 1.02 0.96 0.91 0.80 0.69 0.68 0.63 0.60 0.54 0.48 0.47 0.43 0.39 0.32
0.97 0.97 0.56 0.30 0.20 0.14 0.09 0.08 0.08 0.09 0.14 0.18 0.25 0.49 0.67 0.86 1.20 1.51 1.67 1.77 1.78 1.81 1.86 1.92 1.89 1.72 1.59 1.48 1.37 1.30 1.26 1.32 1.38 1.30 1.09 0.92 0.89 0.89 0.81 0.65 0.69 0.69 0.63 0.57 0.50 0.48 0.46 0.38 0.32
1.17 1.26 0.64 0.28 0.22 0.17 0.12 0.11 0.14 0.12 0.17 0.24 0.30 0.40 0.68 1.02 1.46 1.90 2.19 2.35 2.36 2.25 2.22 2.14 2.14 2.05 1.90 1.76 1.51 1.44 1.38 1.39 1.35 1.23 1.07 0.95 0.92 0.86 0.77 0.57 0.53 0.62 0.62 0.58 0.52 0.48 0.48 0.36 0.28
1.29 1.19 0.57 0.28 0.27 0.24 0.21 0.17 0.19 0.22 0.28 0.32 0.41 0.53 0.83 1.27 1.76 2.08 2.31 2.39 2.45 2.37 2.41 2.34 2.30 2.29 2.18 1.99 1.83 1.69 1.51 1.41 1.34 1.17 1.06 1.04 0.97 0.90 0.77 0.64 0.53 0.58 0.60 0.64 0.60 0.52 0.47 0.37 0.26
0.96 0.73 0.46 0.40 0.37 0.36 0.37 0.34 0.31 0.33 0.35 0.35 0.43 0.61 1.00 1.45 1.94 2.25 2.43 2.46 2.54 2.65 2.74 2.70 2.61 2.63 2.66 2.42 2.12 1.97 1.72 1.51 1.45 1.28 1.19 1.12 1.12 1.07 0.99 0.83 0.69 0.67 0.61 0.60 0.62 0.54 0.41 0.33 0.26
0.67 0.47 0.47 0.52 0.49 0.51 0.54 0.48 0.44 0.40 0.34 0.34 0.49 0.68 1.00 1.54 1.93 2.17 2.35 2.47 2.63 2.84 2.99 3.15 3.03 2.94 2.95 2.76 2.47 2.21 1.97 1.69 1.55 1.48 1.38 1.30 1.21 1.09 1.01 0.90 0.76 0.68 0.59 0.56 0.62 0.55 0.43 0.38 0.30
0.55 0.46 0.51 0.61 0.61 0.59 0.59 0.55 0.47 0.42 0.39 0.49 0.74 0.97 1.16 1.50 1.91 2.28 2.40 2.46 2.66 2.72 2.97 3.28 3.21 3.06 2.97 2.82 2.61 2.30 2.16 1.94 1.72 1.66 1.60 1.45 1.34 1.21 1.08 1.00 0.89 0.80 0.66 0.55 0.56 0.62 0.55 0.51 0.45
0.43 0.46 0.59 0.70 0.70 0.68 0.74 0.68 0.60 0.55 0.60 0.77 1.00 1.18 1.32 1.49 1.87 2.27 2.49 2.58 2.62 2.73 2.86 3.14 3.22 3.02 2.96 2.86 2.62 2.31 2.11 2.00 1.90 1.70 1.57 1.54 1.42 1.32 1.25 1.06 0.92 0.84 0.75 0.62 0.54 0.57 0.63 0.60 0.56
0.46 0.62 0.74 0.82 0.82 0.79 0.89 0.93 0.67 0.63 0.75 0.85 0.99 1.26 1.49 1.62 1.86 2.11 2.29 2.46 2.58 2.77 2.93 2.99 3.14 3.15 2.92 2.86 2.65 2.37 2.28 2.10 1.95 1.80 1.58 1.52 1.48 1.39 1.35 1.19 0.97 0.88 0.89 0.81 0.70 0.68 0.71 0.67 0.56
0.65 0.76 0.84 0.73 0.83 0.92 1.07 1.06 0.69 0.68 0.75 0.82 0.94 1.14 1.40 1.59 1.79 2.03 2.20 2.40 2.60 2.81 3.00 3.00 2.99 3.08 3.00 2.85 2.73 2.40 2.25 2.23 2.05 1.94 1.77 1.60 1.55 1.54 1.50 1.36 1.13 1.09 1.14 1.06 0.91 0.81 0.74 0.68 0.61
0.79 0.72 0.64 0.61 0.69 0.91 1.03 1.02 0.77 0.67 0.73 0.75 0.86 1.01 1.16 1.33 1.56 1.91 2.19 2.47 2.63 2.74 2.98 3.11 3.05 3.02 3.12 3.03 2.88 2.71 2.43 2.21 2.21 2.18 1.95 1.70 1.60 1.59 1.53 1.43 1.35 1.33 1.30 1.20 1.05 0.93 0.86 0.73 0.69
0.58 0.50 0.47 0.54 0.56 0.78 0.86 0.82 0.79 0.71 0.75 0.70 0.71 0.86 1.03 1.18 1.34 1.64 2.00 2.41 2.62 2.73 2.94 3.12 3.09 3.03 3.20 3.33 3.14 2.89 2.66 2.30 2.10 2.11 2.00 1.86 1.72 1.64 1.59 1.46 1.45 1.50 1.45 1.36 1.26 1.10 1.00 0.90 0.83
0.45 0.43 0.41 0.42 0.46 0.67 0.73 0.68 0.76 0.73 0.67 0.66 0.67 0.74 0.84 1.00 1.22 1.42 1.73 2.13 2.37 2.64 2.83 2.99 3.03 2.99 3.00 3.12 3.04 2.77 2.48 2.31 2.07 1.98 2.00 1.96 1.90 1.90 1.79 1.58 1.54 1.58 1.47 1.38 1.41 1.42 1.32 1.17 1.07
0.47 0.47 0.44 0.43 0.49 0.67 0.71 0.65 0.65 0.64 0.60 0.61 0.66 0.66 0.72 0.79 0.98 1.13 1.40 1.71 2.01 2.29 2.66 2.85 2.98 3.09 2.92 2.74 2.81 2.77 2.62 2.43 2.26 2.15 2.14 2.00 1.91 1.87 1.88 1.85 1.75 1.75 1.71 1.61 1.52 1.54 1.55 1.45 1.35
0.46 0.43 0.39 0.47 0.57 0.65 0.71 0.72 0.57 0.53 0.51 0.52 0.56 0.56 0.61 0.73 0.83 0.96 1.15 1.36 1.66 1.96 2.31 2.58 2.76 2.97 3.05 2.94 2.98 2.90 2.76 2.48 2.22 2.02 2.00 2.01 1.96 1.91 1.85 1.90 1.92 1.90 1.86 1.75 1.66 1.60 1.57 1.57 1.50
0.42 0.28 0.35 0.47 0.70 0.73 0.69 0.84 0.51 0.47 0.51 0.52 0.57 0.57 0.58 0.66 0.74 0.86 1.02 1.18 1.38 1.69 1.95 2.20 2.51 2.75 2.92 3.03 2.91 2.73 2.52 2.24 1.97 1.95 2.06 2.08 2.02 1.93 1.90 1.88 1.89 1.92 1.87 1.78 1.80 1.79 1.63 1.63 1.63
0.38 0.27 0.36 0.51 0.70 0.77 0.55 0.69 0.56 0.46 0.57 0.62 0.63 0.62 0.60 0.62 0.70 0.78 0.91 1.05 1.22 1.47 1.72 1.89 2.14 2.44 2.58 2.55 2.55 2.56 2.41 2.21 2.09 2.04 2.03 2.01 1.93 1.86 1.81 1.81 1.83 1.82 1.83 1.79 1.81 1.84 1.82 1.72 1.67
0.39 0.46 0.53 0.61 0.92 1.08 0.62 0.70 0.67 0.65 0.72 0.65 0.59 0.57 0.63 0.68 0.74 0.81 0.89 0.99 1.07 1.20 1.43 1.64 1.73 1.95 2.16 2.18 2.23 2.31 2.19 2.07 1.99 1.90 1.87 1.90 1.83 1.73 1.69 1.66 1.67 1.72 1.72 1.71 1.75 1.84 1.89 1.85 1.72
0.52 0.89 1.23 1.22 1.18 0.84 0.49 0.63 0.76 0.72 0.75 0.75 0.68 0.64 0.71 0.77 0.87 0.94 0.94 1.02 1.07 1.13 1.17 1.37 1.49 1.58 1.76 1.94 2.01 2.01 2.05 2.00 1.92 1.78 1.71 1.76 1.73 1.60 1.56 1.56 1.57 1.63 1.65 1.70 1.81 1.87 1.87 1.89 1.84
0.49 0.69 0.97 0.94 0.72 0.49 0.41 0.63 0.76 0.72 0.71 0.70 0.70 0.71 0.74 0.86 1.00 1.04 1.04 1.16 1.21 1.23 1.20 1.24 1.31 1.30 1.39 1.61 1.78 1.80 1.89 1.87 1.75 1.61 1.52 1.49 1.47 1.45 1.47 1.55 1.59 1.63 1.67 1.67 1.71 1.73 1.74 1.79 1.78
0.57 0.54 0.47 0.86 0.72 0.56 0.47 0.50 0.56 0.57 0.62 0.69 0.72 0.71 0.77 0.91 1.05 1.13 1.17 1.21 1.18 1.16 1.21 1.22 1.27 1.23 1.16 1.24 1.37 1.49 1.60 1.63 1.55 1.44 1.34 1.30 1.32 1.32 1.35 1.43 1.51 1.52 1.55 1.57 1.59 1.58 1.56 1.61 1.65
0.48 0.46 0.64 1.22 1.14 0.76 0.48 0.47 0.68 0.67 0.69 0.69 0.69 0.69 0.79 0.84 0.93 1.03 1.05 1.04 1.09 1.11 1.15 1.21 1.25 1.28 1.18 1.14 1.20 1.29 1.32 1.34 1.31 1.29 1.22 1.13 1.10 1.11 1.14 1.22 1.31 1.34 1.33 1.35 1.41 1.43 1.41 1.45 1.43
0.48 0.54 0.69 0.92 0.87 0.88 0.59 0.67 0.80 0.72 0.68 0.66 0.63 0.66 0.71 0.73 0.75 0.79 0.81 0.86 0.93 0.98 1.09 1.18 1.28 1.27 1.15 1.16 1.18 1.17 1.19 1.25 1.20 1.14 1.12 1.11 1.04 1.00 1.04 1.07 1.13 1.17 1.18 1.19 1.22 1.22 1.25 1.31 1.31
0.38 0.43 0.60 1.05 0.86 0.67 0.64 0.70 0.66 0.59 0.56 0.56 0.58 0.62 0.63 0.66 0.66 0.65 0.64 0.64 0.66 0.72 0.81 0.91 1.02 1.04 1.02 1.04 1.11 1.06 1.06 1.17 1.18 1.10 1.05 1.03 0.99 0.89 0.89 0.92 0.96 0.97 0.97 0.98 1.03 1.06 1.09 1.13 1.16